Location: Clermont
(50.2608°N, 4.3172°E)
Time: 14:52:21
(UTC+00:00)

Nadezhda 4 Rocket - Pass Details

Date: 13 August 2020
Orbit: 949 x 993 km, 82.9° (Epoch: 18 September)

Event Time Altitude Azimuth Distance (km) Brightness Sun altitude
Rises 23:41:59 0° 349° (N) 3,706 8.4 -25.4°
Reaches altitude 10° 23:44:31 10° 349° (N) 2,749 7.4 -25.5°
Maximum altitude 23:50:50 85° 262° (W) 985 3.9 -25.5°
Enters shadow 23:52:02 61° 181° (S) 1,097 3.9 -25.5°
